Regional Weather Roundup
Issued by NWS Little Rock, AR

Home | Current Version | Previous Version | Graphics & Text | Print | Product List | Glossary On
Versions: 1 2 3 4 5 6 7 8 9 10 11 12 13 14 15 16 17 18 19 20 21 22 23 24 25 26 27 28 29 30 31 32 33 34 35 36 37 38 39 40 41 42 43 44 45 46 47 48 49 50
000
ASUS44 KLZK 301305
RWRLZK

WEATHER ROUNDUP FOR ARKANSAS
NATIONAL WEATHER SERVICE LITTLE ROCK AR
800 AM CDT SAT AUG 30 2014

NOTE: "FAIR" INDICATES FEW OR NO CLOUDS BELOW 12,000 FEET WITH NO
SIGNIFICANT WEATHER AND/OR OBSTRUCTIONS TO VISIBILITY.

ARZ001-003-010-029-301400-
NORTHWEST ARKANSAS

CITY           SKY/WX    TMP DP  RH WIND       PRES   REMARKS
FAYETTEVILLE   RAIN      71  70  96 NW8       30.02R FOG
FORT SMITH     MOSUNNY   74  72  93 E6        29.97S FOG
HARRISON       PTSUNNY   71  70  96 S5        30.02R
BENTONVILLE    PTSUNNY   72  68  88 S7        30.01S
ROGERS         CLOUDY    72  67  84 SW8       30.02R
SILOAM SPGS    PTSUNNY   72  63  73 S8        30.01S
HIGHFILL       CLOUDY    72  68  87 S10       30.00R
SPRINGDALE     LGT RAIN  70  68  94 SW13      30.03R FOG
$$

ARZ004-005-016-301400-
NORTH CENTRAL ARKANSAS

CITY           SKY/WX    TMP DP  RH WIND       PRES   REMARKS
BATESVILLE     CLOUDY    73  72  94 CALM      30.00R
FLIPPIN        PTSUNNY   72  66  83 CALM      29.99S
MTN HOME       PTSUNNY   72  70  93 S6        29.99R
$$

ARZ040-041-301400-
WEST CENTRAL ARKANSAS

CITY           SKY/WX    TMP DP  RH WIND       PRES   REMARKS
MENA           PTSUNNY   75  70  83 CALM      30.02R
MOUNT IDA      MOSUNNY   73  71  93 CALM      29.98S
$$

ARZ009-017-025-026-028-301400-
NORTHEAST ARKANSAS

CITY           SKY/WX    TMP DP  RH WIND       PRES   REMARKS
CORNING          N/A     73  73 100 CALM      30.00S
JONESBORO      CLOUDY    75  73  93 SW7       30.00R
NEWPORT        CLOUDY    76  74  93 S7        30.01R
WALNUT RIDGE   CLOUDY    73  70  88 S8        29.99R
BLYTHEVILLE    CLOUDY    77  74  90 S5        30.01S
$$

ARZ022-023-033-042-044-301400-
CENTRAL ARKANSAS

CITY           SKY/WX    TMP DP  RH WIND       PRES   REMARKS
LITTLE ROCK    CLOUDY    77  71  82 S3        30.00S
N LITTLE ROCK    N/A     76  72  87 SW7       30.00S
JACKSONVILLE   CLOUDY    76  72  88 S2        30.00S
SEARCY         CLOUDY    75  74  97 SW3       30.02R
HOT SPRINGS    PTSUNNY   76  72  87 CALM      30.01R
RUSSELLVILLE   CLOUDY    74  72  93 CALM      30.00R
CLINTON        LGT RAIN  72  72 100 CALM      30.03S
$$

ARZ036-301400-
EAST ARKANSAS

CITY           SKY/WX    TMP DP  RH WIND       PRES   REMARKS
WEST MEMPHIS   LGT RAIN  76  76 100 SW5       30.01R
$$

ARZ050-053-066-070-073-301400-
SOUTHWEST ARKANSAS

CITY           SKY/WX    TMP DP  RH WIND       PRES   REMARKS
ARKADELPHIA    FAIR      76  74  93 CALM      30.00S
CAMDEN         LGT RAIN  75  72  88 CALM      29.99S
TEXARKANA      PTSUNNY   75  73  93 SE5       29.99R
EL DORADO      CLOUDY    74  73  97 SE3       29.99S
DE QUEEN       PTSUNNY   71  70  96 CALM      29.98R FOG
$$

ARZ056-057-069-301400-
SOUTHEAST ARKANSAS

CITY           SKY/WX    TMP DP  RH WIND       PRES   REMARKS
PINE BLUFF     LGT RAIN  74  73  97 CALM      30.01R
STUTTGART      CLOUDY    75  72  88 S6        30.02S
MONTICELLO     LGT RAIN  75  73  93 CALM      30.01S FOG

$$




USA.gov is the U.S. government's official web portal to all federal, state and local government web resources and services.